FW7560 Weather Reports


Display with metric or nautical units.
time (UTC)temp
F
wind
direction
speed
MPH
gust
MPH
rain 1hr
in
rain 24hr
in
rain mn
in
humidity
%
barometer
mb
20260503004552 44 0.0 0.0 0.00 0.00 0.00 59 1014.6
20260503003050 44 0.0 0.0 0.00 0.00 0.00 58 1014.6
20260503001551 45 0.0 0.0 0.00 0.00 0.00 56 1014.7
20260503000053 46 0.0 0.0 0.00 0.00 0.00 54 1014.6
20260502234551 46 0.0 0.0 0.00 0.00 0.00 54 1014.5
20260502233050 47 0.0 0.0 0.00 0.00 0.00 53 1014.5
20260502231609 47 0.0 0.0 0.00 0.00 0.00 52 1014.3
20260502230054 47 0.0 0.0 0.00 0.00 0.00 54 1014.4
20260502224554 48 0.0 0.0 0.00 0.00 0.00 52 1014.2
20260502223054 49 0.0 0.0 0.00 0.00 0.00 51 1014.2
20260502221600 48 0.0 0.0 0.00 0.00 0.00 52 1014.1
20260502214555 49 0.0 0.0 0.00 0.00 0.00 51 1014.0
20260502213054 49 0.0 0.0 0.00 0.00 0.00 51 1013.9
20260502211554 49 0.0 0.0 0.00 0.00 0.00 54 1013.7
20260502210106 49 0.0 0.0 0.00 0.00 0.00 54 1013.7
20260502204556 47 0.0 0.0 0.00 0.00 0.00 55 1014.1
20260502203055 49 0.0 0.0 0.00 0.00 0.00 51 1013.9
20260502201601 50 0.0 0.0 0.00 0.00 0.00 50 1014.0
20260502200105 51 0.0 0.0 0.00 0.00 0.00 49 1013.8
20260502194555 50 0.0 0.0 0.00 0.00 0.00 50 1014.1
20260502193051 50 0.0 0.0 0.00 0.00 0.00 51 1014.0
20260502191558 50 0.0 0.0 0.00 0.00 0.00 49 1013.9
20260502190105 50 0.0 0.0 0.00 0.00 0.00 45 1014.0
20260502184558 50 0.0 0.0 0.00 0.00 0.00 48 1014.2
20260502183052 51 0.0 0.0 0.00 0.00 0.00 48 1014.2
20260502181555 50 0.0 0.0 0.00 0.00 0.00 50 1014.1
20260502180120 51 0.0 0.0 0.00 0.00 0.00 47 1014.1
20260502163053 50 0.0 0.0 0.00 0.00 0.00 46 1014.5
20260502161559 51 0.0 0.0 0.00 0.00 0.00 46 1014.6
20260502151606 49 0.0 0.0 0.00 0.00 0.00 52 1015.0
20260502130104 41 0.0 0.0 0.00 0.00 0.00 71 1015.2
20260502123102 40 0.0 0.0 0.00 0.00 0.00 76 1015.1
20260502121606 40 0.0 0.0 0.00 0.00 0.00 76 1015.1
20260502114554 39 0.0 0.0 0.00 0.00 0.00 78 1015.1
20260502113054 38 0.0 0.0 0.00 0.00 0.00 78 1015.1
20260502111601 38 0.0 0.0 0.00 0.00 0.00 78 1014.9
20260502110054 38 0.0 0.0 0.00 0.00 0.00 77 1014.7
20260502104554 38 0.0 0.0 0.00 0.00 0.00 76 1014.7
20260502103104 38 0.0 0.0 0.00 0.00 0.00 76 1014.7
20260502101614 39 0.0 0.0 0.00 0.00 0.00 75 1014.8
20260502100113 39 0.0 0.0 0.00 0.00 0.00 75 1014.5
20260502080106 43 0.0 0.0 0.00 0.00 0.00 66 1014.8
20260502070052 43 0.0 0.0 0.00 0.00 0.00 66 1014.7
20260502064600 44 0.0 0.0 0.00 0.00 0.00 66 1014.7
20260502063057 44 0.0 0.0 0.00 0.00 0.00 69 1015.0
20260502061552 44 0.0 0.0 0.00 0.00 0.00 74 1015.1
20260502060108 45 0.0 0.0 0.00 0.00 0.00 75 1015.2
20260502054552 45 0.0 0.0 0.00 0.00 0.00 77 1015.3
20260502053100 46 0.0 0.0 0.00 0.00 0.00 77 1014.9
20260502051559 46 0.0 0.0 0.00 0.00 0.00 76 1015.0
20260502050057 46 0.0 0.0 0.00 0.00 0.00 76 1014.8
20260502044556 46 0.0 0.0 0.00 0.00 0.00 75 1015.0
20260502043105 47 0.0 0.0 0.00 0.00 0.00 74 1015.2
20260502041556 47 0.0 0.0 0.00 0.00 0.00 72 1015.2
20260502040054 47 0.0 0.0 0.00 0.00 0.00 73 1015.0
20260502034551 47 0.0 0.0 0.00 0.00 0.00 72 1015.1
20260502033056 48 0.0 0.0 0.00 0.00 0.00 72 1015.3
20260502031552 48 0.0 0.0 0.00 0.00 0.00 72 1015.2
20260502030056 49 0.0 0.0 0.00 0.00 0.00 71 1015.2
20260502024556 49 0.0 0.0 0.00 0.00 0.00 70 1014.9
20260502023058 49 0.0 0.0 0.00 0.00 0.00 71 1014.7
20260502021556 50 0.0 0.0 0.00 0.00 0.00 73 1014.6
20260502020052 50 0.0 0.0 0.00 0.00 0.00 73 1014.5
20260502014557 50 0.0 0.0 0.00 0.00 0.00 73 1014.0
20260502013057 50 0.0 0.0 0.00 0.00 0.00 73 1013.8
20260502011609 50 0.0 0.0 0.00 0.00 0.00 72 1013.7
20260502010055 51 0.0 0.0 0.00 0.00 0.00 70 1013.3